GFSSGP_con_mucape_015.txt.gz
CAPE
1763 1551 1169 831 74 37 54 56 55 122 87 166 108 68 101 103 29 89 55 195 200 309 493 1021 1307 1164 1159 1302 1366 1556 1887 1979 2421 2583 2381 1837 1530 1856 2180 2402 2445 2205 2101 2070 2100 1995 1972 2022 2033
1297 855 909 688 39 49 32 40 148 118 234 262 271 223 152 103 103 103 209 324 237 226 497 1002 1479 1237 1348 1337 1374 1962 1456 1655 2495 2593 2324 2016 1876 1991 2240 2249 2096 2121 2117 2008 2001 1949 1933 1940 1924
836 744 1031 51 0 0 55 36 210 343 381 239 266 227 86 136 105 132 223 499 670 750 844 1365 1385 1667 1605 1375 1552 1860 2442 1865 1967 2268 2134 2068 2206 2302 2263 2121 2056 2068 2034 1965 1869 1767 1793 1873 1950
659 926 488 0 0 23 17 156 483 499 527 407 151 146 267 150 132 225 488 614 816 966 1060 1612 1592 1737 1738 1708 1701 1892 2349 2221 2440 2266 1992 2134 2086 2086 1968 1873 1979 2010 1964 1938 1899 1941 1943 1944 1807
593 201 0 0 11 259 56 222 485 560 621 333 248 231 168 623 404 390 650 758 919 1152 1420 1559 1888 1991 2111 2055 2084 2496 2145 1890 2133 2228 2082 2041 2118 2105 2024 2094 2092 2010 1934 1899 1868 1840 1978 2073 2017
85 0 0 0 92 238 84 285 670 734 606 372 254 166 399 703 312 491 606 740 752 1043 1323 1438 1729 2067 2064 1931 2016 2241 1883 1801 2014 2113 2045 2054 2114 2161 2097 2017 1934 1931 1908 1836 1828 2064 2230 2258 2163
81 21 7 7 312 299 142 299 698 595 514 401 254 351 554 574 304 602 643 842 951 1099 1306 1674 1710 2118 2083 2490 1886 2034 2110 1950 2120 2102 2158 2241 2253 2228 2185 2103 2104 2074 1968 2028 2233 2164 1964 2115 2057
20 11 27 9 219 110 294 594 806 478 531 469 393 418 424 680 426 599 664 874 1045 1140 1566 1964 2127 1982 1648 1774 2030 2125 2216 2215 2183 2159 2398 2402 2331 2202 2029 2135 2053 2171 2137 2102 2138 1945 1738 1793 1732
13 5 17 9 175 193 490 546 824 742 616 453 530 501 326 809 548 543 731 999 1330 1457 1665 1767 1885 1939 2220 2082 1796 1901 1884 1886 1971 2105 2260 2180 1852 1801 2020 1503 1599 1664 1764 1755 2080 1918 1668 1965 1654
81 10 3 2 70 249 538 714 880 824 485 490 703 718 885 976 644 539 565 815 1007 1234 1538 1818 1836 1761 1895 1531 2246 2053 1807 1574 1726 1957 2280 2254 2272 2184 1789 1095 1802 1703 1226 1770 1759 1841 1854 1581 1605
21 9 6 6 0 290 526 678 810 717 467 475 858 986 1000 944 876 636 538 578 765 1043 1255 1544 2057 2097 2057 2264 2341 2644 2346 2146 1978 2291 2418 2450 2111 1928 1949 1981 1602 1541 1578 1743 1593 1761 1658 1755 1914
2 0 2 6 7 295 450 632 505 513 127 384 805 928 973 917 855 662 627 717 802 998 1182 1428 1690 2224 2280 2168 2048 2105 1954 2088 1813 1680 2345 2306 2002 1848 2093 1787 1726 2098 2262 1970 1797 1802 1949 1767 1640
0 0 0 0 2 223 400 508 465 488 300 614 879 959 935 881 914 963 854 759 1016 1156 1296 1740 1929 2053 2330 2476 1967 1742 1900 1654 1620 1880 1894 1837 1715 2378 2288 1919 1882 2289 2099 1737 2265 2138 1941 1776 1381
0 0 0 0 0 113 315 350 373 300 732 814 931 955 926 987 1114 1201 980 992 1099 1139 1300 1685 2010 2211 2367 2330 2494 2317 2096 2202 2005 2009 1747 1960 1898 2661 2634 2373 2487 2411 1898 1762 1812 1843 1688 1399 1306
0 35 44 13 0 52 230 375 375 504 799 790 819 886 934 1041 1128 1170 1008 1090 1192 1090 1071 1265 1598 1918 2362 2367 2293 2444 2255 2691 1945 1877 2059 1984 2341 2396 2372 2862 2673 2029 1741 1762 1592 1487 1311 1136 929
0 11 24 27 0 70 61 38 271 666 846 681 631 760 846 928 1040 1206 1183 1313 1418 1177 1206 1289 1049 1360 1889 2120 2256 2281 2311 2249 2270 2419 2421 2117 2224 2249 2447 2740 2421 1964 1658 1435 1385 1384 1123 959 673
0 1 24 87 0 114 97 39 277 609 733 749 632 703 810 924 1109 1313 1388 1502 1585 1580 1552 1699 1680 1704 2121 2284 2300 2337 2612 2701 2817 2236 2273 2282 2351 2012 2389 2231 2227 1784 1665 1674 1404 1164 1099 424 285
0 0 19 145 55 130 129 165 397 535 625 752 796 809 909 1108 1304 1433 1502 1461 1562 1584 1816 1967 1885 2111 2356 2349 2379 2138 2403 2315 2199 2864 2527 2134 2367 2067 2128 2174 1800 1831 1753 1182 1132 1173 871 708 743
3 32 88 109 67 100 123 117 375 484 474 565 815 993 915 951 1044 1208 1354 1397 1446 1568 1692 1942 2136 2369 2343 2225 2231 2191 2124 2505 2528 3023 2155 2236 2200 2065 2215 2148 1773 1572 1154 942 1065 762 675 495 690
3 26 61 37 77 90 73 112 212 469 467 449 567 798 909 949 1061 1194 1218 1112 1228 1464 1556 1927 2158 2470 2450 2243 2219 2141 2320 2340 2284 2316 2531 2368 2187 2212 2071 1847 1389 1349 984 1005 677 718 411 368 717
0 26 36 36 35 84 125 53 123 363 453 386 373 437 517 625 771 803 895 994 1072 1207 1479 1855 2352 2496 2355 2319 2246 2213 2093 1995 2047 2142 2051 2139 2190 2098 1916 1546 1225 1288 669 216 599 468 592 257 516
0 0 49 57 61 27 65 33 99 263 507 477 433 378 368 404 489 501 559 825 1042 1050 1237 1930 2090 2373 2201 2315 2123 2226 2031 2048 1997 1715 1850 2166 1969 1755 1623 1227 801 750 329 539 407 358 487 474 148
0 0 1 42 86 27 67 11 21 169 328 526 526 476 401 343 374 418 437 617 875 988 1010 1290 1956 2266 2125 2231 2494 2233 2289 2205 1978 1343 1741 2161 1491 1272 731 461 431 543 485 554 319 535 440 324 192
0 0 0 3 27 9 4 6 0 129 283 331 337 426 430 364 366 391 427 460 687 861 956 1079 1775 2272 1972 1986 2208 2383 2460 2394 1770 1226 917 1431 980 646 313 260 581 782 620 375 276 399 458 399 429
0 0 0 0 2 0 0 4 28 31 143 186 224 287 333 347 325 376 498 533 844 978 1106 1289 1901 2078 1724 1808 2119 2245 2455 2598 2089 1713 1042 980 809 788 180 385 608 673 581 298 288 406 369 321 339
0 0 0 0 0 0 0 0 0 65 64 76 182 198 282 313 480 472 865 826 870 856 1482 1580 1893 2043 1843 1745 2342 2624 2586 2301 1931 1566 945 839 779 375 285 450 520 612 222 172 278 260 299 295 282
0 0 0 0 0 0 0 0 0 1 2 3 52 129 258 414 476 586 646 669 1003 1233 1504 1687 1960 2119 2131 1937 2549 2539 2658 2339 1886 1279 876 784 596 218 411 453 561 326 46 168 328 168 315 389 495
0 0 0 0 0 0 0 0 0 0 26 60 30 83 204 438 564 650 987 1080 1203 1239 1576 1769 1965 2128 2101 1735 2295 2292 2138 1525 1772 1102 717 547 449 299 454 524 360 159 185 225 378 148 118 280 342
0 0 0 0 0 0 0 0 0 0 23 46 67 40 117 376 478 840 1182 1147 1346 1272 1248 1506 1758 2155 2181 2148 2529 2604 1803 1413 1361 856 472 105 427 354 449 481 261 262 292 271 348 418 302 315 481
0 0 0 0 0 0 0 0 0 0 0 1 17 14 13 242 398 794 989 1127 1133 1399 1201 1352 1712 1746 2154 2247 2482 2167 1353 1130 1063 1100 126 256 172 253 334 342 293 299 272 360 460 440 191 445 495

GFSSGP_con_mucape_021.txt.gz
CAPE
1021 845 1362 1659 968 170 122 128 189 260 218 96 48 256 206 179 119 7 49 354 246 380 470 592 1116 1091 1241 1330 1240 1507 1375 1552 1947 2060 2208 1891 2144 2341 2178 2161 2125 2074 1957 1855 1801 1739 1738 1737 1607
1222 1478 2091 1898 561 13 109 163 104 215 289 198 161 207 199 271 80 90 194 353 226 208 324 443 1175 1267 1414 1394 1299 1226 1121 1176 1374 1768 1939 1773 2197 2174 1982 1974 2012 1973 1886 1761 1649 1721 1749 1755 1644
1713 1727 1860 1636 76 23 119 112 203 183 175 189 230 209 437 355 296 413 374 166 137 552 858 804 1281 1450 1544 1446 1662 1548 1494 1498 1405 1548 1671 1868 2210 2095 1836 1905 1950 1863 1754 1688 1773 1763 1781 1758 1780
1958 1450 1310 130 13 83 172 215 163 209 242 250 375 403 401 415 487 568 748 506 552 769 884 1104 1431 1506 1529 1555 1734 1807 1910 1698 1408 1516 1975 2152 2016 1786 1811 1922 1787 1736 1742 1746 1712 1785 1885 1977 1935
1403 1050 286 28 35 88 234 241 250 221 236 309 428 581 471 620 631 650 752 578 759 877 1133 1108 1858 1753 1718 1882 2175 1995 1910 1640 1441 1854 2115 1994 1974 1845 1950 1755 1618 1688 1781 1859 1945 1944 1773 1785 1818
1010 280 58 28 2 24 184 201 165 292 273 237 489 588 835 781 829 941 964 980 799 1141 1212 1401 1988 1935 1995 1932 1887 1651 1635 1663 1840 1986 1978 2091 2095 1920 1806 1624 1681 1736 1881 1965 2196 2020 1580 1678 1519
781 250 63 21 1 8 19 48 126 140 117 353 552 837 784 909 969 922 1197 965 838 984 1226 1397 1608 1884 2127 1956 1715 1709 1775 1879 1883 1896 1964 2001 2026 1885 1643 1620 1688 1695 1927 1990 1831 1768 1471 1615 1451
799 180 50 79 59 0 0 45 21 54 192 221 604 793 828 1015 859 788 763 848 864 1295 1117 1330 1604 1445 2030 2194 1670 1597 1691 1669 1720 1771 1988 2051 2031 1874 1447 1608 1934 1682 1695 1709 1712 1646 1430 1658 1524
416 116 156 26 59 0 0 15 16 122 53 94 278 595 740 836 768 716 664 893 1083 1294 1367 1424 1337 1224 1384 1641 1747 1722 1764 1734 1726 1779 2110 1851 1794 1967 2184 1721 1486 1812 1779 1898 1584 1691 1564 1642 1740
366 56 88 23 47 15 3 16 48 59 66 178 181 566 705 785 752 705 719 1106 1077 1237 1171 1330 1263 1298 1224 883 1692 1397 1247 1262 1240 1323 1962 1399 1753 1759 1307 1367 1416 1802 1270 1616 1677 1729 1792 1918 2122
104 227 52 11 42 57 4 34 18 137 41 141 223 628 623 674 790 747 741 850 986 1427 1372 1187 1668 1287 1198 2286 1355 1472 1387 1310 1374 1746 1709 1550 1608 1495 1385 2120 2433 2432 1672 2002 2189 1919 1897 1997 1800
29 119 47 65 1 99 24 120 14 5 68 53 274 577 603 712 745 746 777 910 1166 1293 1087 881 1200 1627 1491 1424 1181 1214 1066 1020 1002 1368 1823 1865 1732 1402 1602 1441 2527 2456 1709 2250 2992 2148 2131 1486 2264
14 59 22 8 5 25 63 102 34 7 23 72 355 565 637 658 661 662 709 818 1057 1144 1052 1046 1287 1877 1753 2030 1314 1158 1042 965 946 1089 1674 1437 1331 1415 1554 1664 1793 2573 2350 1918 1863 2321 2698 1766 1687
5 15 4 0 7 6 62 107 38 10 41 191 537 606 603 537 557 613 658 824 1028 1145 1150 1214 1502 1805 1941 2427 2144 1458 1395 1395 1026 1031 1206 1852 1575 1857 1426 2670 2662 2346 2120 2225 1937 2761 2171 2431 2276
0 0 6 0 4 7 16 71 48 66 243 324 516 585 475 466 510 634 640 765 953 1119 1187 1297 1475 1667 2076 2068 2065 1822 1415 1191 1494 1268 1546 1698 2349 2287 2434 2639 1916 2303 2561 2130 2039 2270 2159 1670 1542
0 0 38 15 0 10 11 54 61 224 201 518 395 571 485 472 503 631 641 745 897 952 1125 1302 1250 1441 1939 2603 2333 1899 1585 1975 2385 1247 2029 2179 2147 2467 2446 2129 2134 2316 2473 2535 2012 1874 1965 426 148
0 1 12 13 16 105 88 47 140 300 145 135 502 378 523 521 549 656 688 821 869 1019 1180 1309 1400 1356 1840 2867 2303 2337 2952 2669 1826 2677 2019 1891 2113 2392 2488 1994 2371 2338 2236 2287 1824 1630 613 191 1
4 8 78 189 24 135 99 301 318 482 243 23 221 226 338 404 531 688 793 824 870 1005 1268 1502 1444 2064 2769 2663 3391 2374 2256 2192 1852 1825 2363 3008 2066 2624 2105 1944 1939 2065 1921 1866 2020 1058 448 86 0
28 84 41 59 35 71 160 193 320 541 516 193 48 150 178 239 508 636 839 738 823 1019 1500 1770 2284 3668 2501 2053 2243 2265 2023 1943 1570 1762 1830 2772 2374 2226 2173 2108 2066 1997 1632 1454 859 350 130 0 213
0 48 77 44 76 45 113 185 374 549 582 509 292 110 147 149 240 528 856 782 979 1229 1747 2810 3057 3907 3344 2684 2793 2422 2072 1017 1406 2259 2963 2310 2076 2315 2120 2174 2254 2275 950 1130 315 60 22 2 123
0 20 74 77 149 141 174 129 210 269 591 543 441 266 192 102 132 347 741 953 1095 1239 1833 3201 3975 4270 3990 3808 3195 2664 2426 1737 1658 911 1493 2240 1901 1991 2166 2368 1582 1759 789 27 231 152 105 46 25
0 1 26 75 108 216 71 245 222 178 205 482 631 570 297 274 177 205 635 1008 1103 1309 1759 3266 3921 4376 4072 4401 3113 3598 2359 1622 925 1008 895 897 927 1081 1567 1034 1137 1010 113 1126 195 95 189 160 76
0 2 24 58 113 176 106 131 116 104 130 154 451 600 531 286 289 198 398 735 975 1226 1562 2251 4162 4525 4472 4391 4015 2829 2990 1282 1092 902 2193 1265 2352 1114 758 1258 1058 515 0 213 297 99 299 253 21
0 0 43 60 89 112 193 110 190 35 156 185 199 471 711 487 374 476 382 536 774 996 1316 1762 3995 4635 4723 4575 4493 4601 4497 2756 1798 1880 1401 901 1076 1023 1186 1152 926 422 66 342 357 202 208 140 299
0 0 53 79 92 63 146 133 307 151 163 138 123 141 488 793 328 353 540 549 883 1262 1645 1934 3732 4676 4831 4468 4379 4286 4542 4287 3615 2703 1608 1593 817 912 2414 1757 1398 648 577 667 443 376 284 68 108
0 0 8 45 63 66 83 98 146 188 52 108 88 72 135 681 675 269 336 432 696 1178 2192 2490 3449 4502 4653 4525 4686 4734 4757 2903 2619 2952 1838 759 568 834 3048 1848 1285 624 763 706 567 198 155 225 98
0 0 0 38 85 105 82 71 46 47 74 105 48 17 41 471 718 424 317 259 397 1163 2140 2686 3311 4281 4518 4413 4835 4754 4677 4472 2748 3429 3663 1831 1888 608 1259 1638 1165 1067 614 803 442 192 299 273 290
0 0 0 26 145 143 95 86 75 108 41 38 46 16 28 59 476 593 392 413 712 697 1591 2441 3157 4248 4404 4355 4590 4355 4501 4585 4465 4425 4256 3282 2661 1671 2252 1387 1011 995 1037 989 676 608 728 362 336
0 0 2 5 46 90 110 101 70 98 61 40 8 8 38 50 274 660 586 510 800 641 925 1820 2875 3817 4237 4225 4337 4321 4302 3924 4464 3965 4025 3677 3128 2669 1958 1765 1700 1303 1188 952 1364 861 649 608 897
0 0 0 150 24 38 96 88 48 23 40 26 43 60 61 39 80 291 632 644 750 1338 983 1305 1909 2382 3515 3786 4414 4384 4436 4034 3945 4150 3978 3938 3227 2895 2275 2092 1796 1290 781 523 588 978 314 705 677

GFSSGP_con_mucape_024.txt.gz
CAPE
724 629 896 240 353 262 105 117 214 129 80 78 43 216 8 125 12 56 74 315 338 384 494 563 1267 1170 1193 1708 1867 2143 2388 2582 2638 2732 2894 2879 2865 2759 2730 2638 2538 2277 2144 1760 1728 1756 1755 1606 1565
565 678 765 269 290 151 206 276 149 116 58 203 162 131 20 10 37 156 289 342 231 220 192 269 1726 1456 1519 2047 2050 1917 1985 1989 2430 2556 2736 2816 2688 2579 2226 1942 1925 1840 1735 1679 1775 1809 1775 1731 1601
740 822 1178 940 90 108 145 199 88 255 148 172 192 167 106 107 130 222 178 129 179 232 654 1112 1495 1914 1794 2016 2128 2122 2108 2080 2341 2380 2484 2593 2310 1790 1829 1849 1745 1697 1682 1718 1751 1823 1825 1790 1730
1477 1503 1610 1212 147 88 211 102 111 53 258 198 152 265 214 259 251 269 191 215 387 697 451 1383 1712 1761 1929 2263 2189 2316 2203 2022 2167 2360 2337 1944 1752 1665 1865 1716 1604 1609 1642 1695 1877 1874 1711 1792 1651
2027 1141 1123 159 188 286 155 207 75 67 311 303 240 395 541 404 180 311 319 468 630 677 737 1168 2128 2182 2120 2103 2261 2182 1778 1792 2141 2278 1890 1891 1771 1800 1800 1446 1417 1557 1758 1829 2131 1810 1615 1553 1595
1357 800 715 11 0 101 69 227 56 89 252 407 290 452 451 581 692 561 584 634 736 799 803 1104 2087 2154 2040 2401 2133 1973 1606 1432 1742 1889 1870 1944 1872 1767 1540 1354 1424 1616 1795 1963 1935 1688 1524 1540 1239
831 763 199 1 0 9 11 24 84 35 189 285 549 501 448 561 659 611 574 834 850 904 1179 1604 1487 1987 2067 2284 1920 1695 1635 1721 1798 1739 1780 1892 1852 1731 1502 1322 1393 1541 1729 1725 1764 1566 1365 1444 1226
529 570 273 13 0 0 0 28 3 3 194 256 399 359 530 758 916 599 874 775 791 899 1305 1824 1952 2034 2036 1631 1762 1646 1639 1584 1547 1548 1630 1679 1784 1712 1400 1663 1922 1590 1560 1596 1589 1605 1320 1396 1436
189 107 227 25 2 0 0 0 59 61 33 294 384 342 571 393 532 970 852 879 904 979 1124 1207 1498 2248 2203 1700 1269 1580 1496 1460 1420 1541 1824 2217 1459 1667 1971 2273 1699 1656 1644 1788 1626 1738 1894 1913 2128
110 20 39 0 56 0 3 0 0 0 0 55 563 517 454 403 479 630 1074 1082 858 1042 794 1239 944 1092 1964 1032 1936 1846 1337 1251 1450 1677 2535 1983 1260 1436 2155 1719 1793 1483 1533 1710 1836 2162 1573 2288 2071
45 0 67 150 18 0 0 0 0 7 2 25 566 551 478 432 433 279 980 812 1151 1322 1076 1211 1504 1597 1135 1879 1715 1645 1624 1592 1790 3051 2053 2960 2299 2085 1535 1814 3168 1744 2544 2120 1981 1005 168 1371 2259
85 65 21 42 48 84 3 2 0 41 20 33 531 650 616 471 300 252 792 649 1390 1171 1311 1029 2104 2543 1864 1768 1484 1722 1743 1793 1555 2116 2825 3022 3101 2620 2371 1759 2847 2590 2017 2456 2232 1095 1058 2174 2339
25 80 20 19 0 29 17 8 0 15 22 40 338 501 584 507 348 261 376 660 1305 1267 1315 1851 2315 3037 3477 3041 2399 1823 2056 1115 1801 2127 2426 2289 2666 1902 2508 2923 2430 3002 2715 1986 2004 2459 2086 1331 2042
1 6 8 7 2 1 54 39 0 0 14 65 204 340 390 434 405 544 583 793 1325 1242 1134 1701 1972 2755 3001 3257 3379 3893 2748 2620 988 1728 2328 2983 2756 3393 2424 2572 2570 3025 2116 2243 2850 3339 3098 2994 2722
0 2 0 0 0 5 42 47 26 0 6 66 139 284 326 376 461 631 684 1000 1219 1178 1283 1613 1789 2474 2840 3266 3223 3199 2794 1537 2314 1774 2585 3120 3437 3063 3514 3222 3024 2681 2762 2331 3083 2935 2982 2602 2203
0 0 0 0 0 0 1 132 3 0 0 29 207 239 333 314 272 611 716 1000 1117 1169 1881 2066 957 1964 2665 3047 3424 2318 1791 2032 2126 2187 1687 2070 3290 2822 3047 2937 2539 1926 1992 2396 1934 2358 2654 1701 755
0 0 0 9 0 4 0 77 123 133 0 17 122 207 221 439 427 599 536 915 1126 1447 2099 1745 2138 1892 2632 3028 2947 2931 2612 2323 3128 1823 1963 2413 3254 3074 3202 2741 2160 2652 2356 2538 1947 2201 1396 1120 555
0 0 0 30 12 3 15 114 52 91 20 22 56 188 282 214 265 645 629 659 899 1235 1971 2236 2085 3116 2960 2665 3160 3328 2431 3304 1966 2904 2785 2330 2932 3203 2131 2575 2375 2391 2874 2566 2229 1775 1405 705 280
0 0 0 7 1 6 161 202 29 127 115 0 62 73 82 222 394 610 652 768 901 1257 2043 2284 2897 3507 3561 3371 2591 2587 2500 2615 2446 2727 1778 2503 3229 3192 2731 2497 2627 3018 2552 2153 1773 1296 435 748 685
0 0 23 22 52 118 18 453 262 357 257 49 1 44 54 103 304 646 847 878 922 1395 1811 2629 2715 4054 3248 3049 3044 2543 2199 2330 1953 2124 3218 2769 3074 3204 2876 2552 2722 2688 1827 1684 1146 615 520 497 1072
0 0 0 28 23 18 26 29 66 261 277 230 117 37 26 59 82 626 870 888 978 1400 2172 2571 2838 3574 2972 3566 2908 2945 3158 3743 2610 2801 2389 2837 3101 3153 2833 3002 2660 2612 1769 1528 1248 896 718 493 1047
0 0 0 2 30 3 72 80 268 147 459 172 109 96 60 65 98 140 633 1089 1003 1407 2152 2846 3145 3180 3813 2900 3216 3099 2358 2466 2182 2655 2416 2904 2696 2720 3001 3285 2407 2288 1365 1587 1174 1041 600 824 485
0 0 0 0 0 120 137 29 115 236 406 403 146 106 69 122 59 51 364 788 967 1432 1880 2897 3383 3678 3518 3692 3424 3492 3413 1752 2706 2461 3098 3131 2817 2537 2256 2203 2599 1660 609 1856 1075 963 742 1124 762
0 0 0 0 1 48 83 41 195 248 77 89 279 226 441 242 247 167 218 670 1036 1254 1708 2191 3622 3758 3698 3844 3633 3765 3317 2660 2766 3268 2385 2050 1925 2239 2331 2462 1908 1750 1050 1687 1184 851 670 877 1031
0 0 0 0 49 9 81 184 246 180 137 81 29 68 499 578 390 402 312 559 1153 1266 1569 2268 3552 3871 3931 4036 4009 3513 3941 3537 3520 4303 2245 1648 1280 1261 2097 2515 1910 1596 1266 1888 1545 1183 1109 843 738
0 0 0 2 13 21 23 39 236 261 62 5 27 1 263 489 635 640 733 587 1198 1263 1689 2149 3452 3811 4102 3840 4248 4153 3723 3950 3285 3325 2922 1920 1678 1722 1855 2039 1750 2027 1369 1513 1128 1210 704 716 647
0 0 0 0 2 40 43 44 43 216 49 59 2 13 59 532 761 699 893 919 1019 1398 1670 2026 3427 3795 4089 4206 4108 4331 3943 3545 3243 3251 3054 2802 1943 2943 1803 1871 1842 1457 1516 1413 1166 456 541 683 1095
0 0 0 0 4 35 31 97 127 385 54 54 57 66 49 325 580 761 542 852 1089 1447 1749 2188 2810 3816 4144 4235 4199 4143 4198 3736 3288 3397 3504 2365 3355 2805 2361 2113 1783 1327 1284 1377 981 663 1034 594 914
0 0 0 0 0 7 44 54 165 393 477 293 159 81 70 30 450 790 676 699 956 1177 1599 2061 2316 3661 4105 4140 4157 4249 4197 4110 3566 3343 3231 2965 2965 2804 2330 2062 1607 1345 1252 1379 989 834 1191 1032 956
0 0 0 0 0 0 31 51 60 136 341 437 143 100 60 49 63 391 855 806 838 903 1259 1816 2260 2563 3634 3972 4093 4250 4212 4153 4028 3338 3641 3454 3153 3256 2721 1971 1607 1450 1130 1143 906 690 643 777 910

GFSSGP_con_mucape_027.txt.gz
CAPE
838 654 499 43 369 68 85 111 67 38 52 41 28 54 18 98 0 0 52 96 146 181 301 469 1193 1398 1380 2224 2449 2338 2477 2751 3027 2959 2927 2831 2445 2454 2731 2301 2000 1937 1775 1744 1782 1785 1548 1497 1500
511 662 50 3 107 83 156 158 185 117 118 128 174 48 0 19 16 62 118 189 237 182 259 662 1497 1821 1645 2030 2347 2434 2155 2065 2881 2854 2941 2782 2485 2570 2025 1958 1841 1764 1734 1785 1791 1706 1632 1543 1533
426 423 0 9 49 114 176 181 177 287 253 103 104 66 34 74 100 96 108 182 181 112 441 923 1662 2094 1938 1817 2216 2337 2271 2070 2318 2680 2594 2406 1961 1933 1907 1768 1746 1764 1727 1721 1776 1716 1745 1703 1489
510 637 535 600 75 131 170 158 219 210 235 243 150 45 74 126 85 159 118 109 258 485 907 1835 2066 1646 1878 1937 2327 1971 1981 2126 2556 2842 2612 2183 1792 1890 1744 1658 1678 1679 1764 1911 1876 1601 1614 1678 1439
953 949 634 964 157 125 148 89 215 177 329 203 193 187 104 103 111 79 102 371 290 611 1136 1566 2329 2460 2342 2095 2203 2061 1830 1879 2783 2791 2565 2205 1877 1881 1614 1476 1535 1635 1768 1980 1962 1577 1512 1482 1543
1197 1253 538 299 124 154 101 93 227 275 446 544 370 131 176 118 80 210 327 546 498 662 1067 1419 2118 2377 2421 2179 2058 1867 1707 1773 2735 2670 2627 2536 2269 1977 1872 1437 1478 1612 1748 1827 1782 1535 1534 1447 1263
1419 260 342 209 169 89 169 110 329 305 363 356 428 176 156 232 189 281 438 565 478 718 888 1355 1461 1754 2374 2649 1948 1753 1821 1890 2455 2405 2375 2256 1850 1603 1569 1496 1467 1504 1531 1586 1684 1559 1480 1570 1417
204 171 276 124 34 24 112 78 323 305 401 338 533 610 414 399 376 391 542 605 637 793 1035 1322 1414 1655 1765 1688 1746 1688 1790 1832 1844 1761 1725 1746 1823 1708 1580 1841 1787 1620 1542 1531 1536 1741 1796 2055 1856
61 44 47 40 2 4 21 71 247 446 446 388 325 625 547 537 387 565 637 701 839 1113 1051 1127 1472 1559 1423 1287 1395 1789 1755 1887 1886 1661 2018 2254 1612 797 1820 1716 2179 1705 1653 1871 1651 2289 2254 2607 2287
77 2 1 18 9 1 41 117 129 273 355 330 324 455 540 494 524 661 604 772 823 820 1107 1175 1226 1411 1085 1076 1225 1185 1234 1249 1164 1148 1149 1678 865 865 1251 1984 2343 1730 1639 1817 1790 2018 111 1443 1371
27 10 4 27 38 12 7 0 0 25 325 321 366 405 600 713 679 573 588 704 683 847 1082 1129 1391 1461 1065 786 840 933 1011 981 894 814 1001 1330 1414 1033 1264 1467 1808 851 1998 1214 1618 1470 774 1139 1561
14 30 0 11 9 18 20 2 0 1 53 374 358 179 223 745 765 629 608 525 597 580 808 748 579 1219 1197 897 701 952 1011 911 871 1131 1744 1548 1220 986 1383 1569 1448 1494 1822 1576 1456 1035 1105 1155 1375
19 34 2 23 43 78 40 11 18 14 420 453 387 227 244 275 664 838 750 696 668 565 779 840 875 1038 1057 890 512 976 1090 1198 1079 1274 1852 961 861 1433 1673 1536 1417 1559 1261 1511 1186 1480 1532 1407 1148
17 105 52 12 52 111 56 39 14 34 490 537 487 330 323 134 151 665 615 868 823 847 904 1173 1140 1477 1040 1486 1704 2036 1479 1190 1263 1442 1205 1316 1510 1690 1478 1903 1634 1589 1442 1420 1763 1667 1667 1689 1715
0 2 64 88 14 99 94 2 1 11 313 476 475 404 364 298 160 145 665 865 615 486 703 1114 1006 1728 1570 1465 1867 1427 1507 720 648 1600 1592 1430 1487 1642 1578 1574 1628 1661 1597 1649 1675 1571 1635 1732 1580
0 0 0 0 2 6 68 8 21 10 127 278 305 307 363 345 219 190 577 715 644 427 1154 1307 1201 1131 1159 1544 1966 1207 819 982 1363 1292 1587 1733 1785 1678 1589 1401 1483 1616 1556 1499 1138 1134 1138 682 127
0 0 0 0 0 0 15 22 3 0 75 145 171 172 218 252 257 277 418 764 650 543 1013 971 1325 1113 1197 1549 2034 1516 1235 1651 1224 1038 1203 1193 1883 1731 1457 1703 1790 1607 1330 1273 1111 985 754 98 11
0 0 0 0 5 0 1 22 1 0 5 81 143 82 116 104 209 310 311 461 684 500 1021 864 892 1384 1289 1779 1760 1762 1517 1834 1469 1007 1299 1546 1864 1870 1458 1323 1522 1284 1300 1277 663 711 241 0 12
0 0 0 0 19 0 18 12 0 10 0 22 106 57 98 92 98 219 219 532 575 786 1256 835 1159 1693 1484 1678 1705 1891 1728 1712 1691 1697 1831 1494 1655 1679 1432 1505 1477 1497 1338 738 940 257 0 0 41
0 0 0 0 7 28 83 11 13 0 0 0 10 45 62 101 67 183 228 332 542 770 1104 897 1075 2178 1572 1609 1610 1808 1341 1466 1475 1334 1641 1269 1871 1682 1441 1175 1214 1431 1481 833 390 4 0 13 47
0 0 0 0 16 7 64 159 19 14 38 18 11 19 56 77 85 187 199 248 425 583 1110 1190 1414 2181 1886 1999 1728 1640 1518 1578 1860 1514 1472 1954 1891 1896 1666 1270 1381 1426 958 686 163 0 24 3 87
0 0 0 0 0 0 62 83 71 95 74 38 32 25 14 50 80 110 234 322 349 694 1109 1089 1514 2247 1761 1929 1625 1587 1577 1562 1458 1709 1291 1563 1805 1759 1569 1501 1202 1019 793 233 23 29 78 24 15
0 0 0 2 0 4 0 0 34 99 79 99 47 60 19 8 46 120 329 243 435 656 976 1555 1356 2231 1577 1755 1710 1438 1492 1154 1303 1343 1455 2059 1861 1364 1533 1681 1113 682 363 298 85 0 4 167 185
0 0 0 0 1 2 0 3 1 72 106 137 160 82 32 23 16 56 170 369 398 719 1330 1693 1554 1548 2252 1381 1696 1852 1968 1581 824 1493 1812 1896 1452 1349 1323 1239 685 529 139 90 48 163 35 41 72
0 0 0 0 0 0 6 3 1 32 57 267 190 68 71 10 27 13 177 417 412 708 1153 1804 1776 1796 2039 2233 2064 2089 2238 1920 1489 1381 1189 1267 763 879 806 879 641 666 137 153 83 48 31 16 31
0 0 0 0 0 0 0 1 25 46 38 190 107 19 55 43 38 61 39 257 552 556 1094 2116 2036 1989 2328 2261 2186 2095 2028 2687 1583 1836 1488 764 730 740 620 970 696 654 2 451 223 118 120 106 11
0 0 0 0 0 0 0 0 0 3 43 54 32 33 17 16 132 116 85 92 448 556 1132 1387 2383 2238 2418 2637 2448 2403 2024 2034 2814 2017 1835 1484 846 980 671 880 802 636 55 181 282 166 58 105 3
0 0 0 0 0 0 0 0 0 13 52 36 48 65 39 8 3 231 110 79 427 611 955 1421 2617 2517 2693 2270 2835 2927 2622 2246 2264 2891 1851 2066 1432 1277 897 1068 697 741 209 202 466 275 265 203 171
0 0 0 0 0 0 0 0 0 21 117 75 58 38 23 0 102 151 175 116 552 700 903 1365 2400 2629 2891 2799 2537 2875 3135 2775 2229 2582 2378 1668 1655 1352 1097 1075 890 625 683 438 590 337 142 360 114
0 0 0 0 0 0 0 0 0 0 240 149 69 48 11 0 4 51 325 360 539 788 893 1319 2609 2651 2902 3105 3000 2754 2971 3139 2670 2152 2281 2145 1688 1799 1374 1145 1150 792 446 726 497 318 265 293 321

GFSSGP_con_mucape_030.txt.gz
CAPE
387 435 391 24 227 25 31 64 27 24 14 1 4 41 0 18 0 0 0 33 51 91 255 505 1194 1637 1912 2318 2671 2601 2488 2434 2925 2866 2442 1941 1983 2091 2099 2025 2059 1773 1743 1853 1902 1770 1618 1633 1607
586 415 19 28 108 87 104 78 28 63 24 31 4 9 18 4 13 44 43 23 93 181 311 547 1331 1761 1877 2149 2523 2610 2287 1949 2912 2765 2523 2199 2179 2084 1947 1865 1785 1763 1844 1891 1805 1771 1697 1612 1524
639 58 128 11 19 51 90 225 225 152 77 42 34 10 0 14 3 14 37 40 31 209 483 843 1896 1994 1918 2019 2312 2531 2479 2110 2507 2247 1946 1952 2012 1941 1779 1751 1754 1795 1821 1846 1892 1816 1812 1670 1430
614 333 103 161 163 68 115 408 362 216 128 47 1 46 54 82 96 86 170 86 174 362 625 1544 1995 1349 1771 1923 2117 1877 1764 1833 2226 2098 1947 1835 1933 1794 1690 1703 1725 1815 1901 2089 1697 1571 1688 1663 1465
813 589 311 296 128 107 153 389 420 212 169 79 37 61 38 60 127 202 201 140 254 545 1070 1346 2121 2111 2025 2043 1773 1842 1558 1814 2148 2085 1855 1798 1901 1721 1557 1588 1684 1818 1823 2168 1780 1536 1463 1564 1537
762 387 116 83 100 106 230 433 321 270 267 141 98 100 65 136 188 155 188 305 463 946 1402 1571 2154 2360 2165 1730 1566 1616 1554 1988 2070 2117 1973 1875 1913 1673 1483 1479 1528 1679 1804 1803 1808 1496 1535 1403 1304
37 155 157 46 52 214 300 406 322 466 298 191 133 84 112 98 79 281 228 424 600 1063 1345 1419 1434 1455 1946 2526 1647 1499 1568 1958 2018 2080 2048 1942 1807 1703 1564 1442 1500 1558 1616 1654 1722 1567 1425 1548 1412
433 277 152 59 18 138 350 419 499 475 427 196 170 154 108 102 183 437 467 454 645 877 1237 1338 1432 1544 1919 1877 1784 1514 1587 1878 1982 1884 1950 1972 1835 1725 1620 1947 1905 1817 1634 1587 1591 1700 1868 1835 1502
353 50 5 4 53 93 310 409 492 410 387 173 407 213 140 171 246 445 560 521 602 825 1167 1327 1493 1852 1735 1483 1368 1777 1709 1887 1806 1695 1739 2189 1561 1377 1422 1853 1943 1988 1817 1910 1732 1837 1562 1935 1701
504 15 44 9 7 27 192 331 412 433 481 437 388 293 236 213 335 485 588 613 776 806 966 1111 1446 1531 1222 1335 1177 1293 1310 1458 1364 1299 1277 1690 1322 803 1010 1737 2213 1893 1818 1972 1865 1945 633 807 1208
66 37 23 15 19 76 304 383 354 420 439 390 426 469 412 362 424 559 691 727 902 785 970 1076 1196 1236 930 1045 1154 1073 1035 1014 916 750 709 1082 1213 894 1370 1423 1622 965 1353 1054 1690 1462 812 1019 1196
4 2 9 37 36 12 296 413 408 350 379 360 504 579 451 419 528 640 786 768 780 878 892 933 1079 1055 720 657 931 645 642 693 528 509 716 1036 1170 1365 1118 1192 989 1178 1192 1496 1420 996 850 1017 1121
0 1 24 24 39 23 35 75 416 385 351 403 571 614 517 559 650 647 700 738 726 921 956 902 1036 1089 788 651 473 361 650 641 585 573 689 1027 1184 1084 1231 1169 1224 1354 1448 1412 1257 1067 1093 1221 1291
0 0 17 32 4 40 43 11 17 331 392 411 587 582 585 636 647 546 563 636 741 826 875 870 950 1117 905 880 521 360 674 763 743 720 883 1169 805 1258 1329 1428 1224 1515 1354 1283 1345 1261 1399 1375 1605
0 0 0 10 8 10 21 26 354 472 427 315 239 540 658 671 644 549 513 646 690 576 659 652 629 794 980 886 661 994 1088 1050 1021 963 1013 1331 1174 1345 1199 1237 1332 1270 1296 1484 1373 967 1175 952 769
0 0 0 0 0 2 10 62 459 471 429 385 340 183 391 770 762 701 615 614 487 470 693 785 760 864 881 892 1042 1273 958 616 848 1098 1091 1020 1056 1283 1365 1225 1156 1437 1414 1307 1032 973 699 360 14
0 0 0 0 0 9 25 36 385 490 472 454 395 214 260 140 287 702 723 559 569 644 729 971 897 1088 816 1082 1334 929 826 637 884 1114 1166 1065 1300 1371 1114 1046 1411 1403 1324 1181 1073 859 352 116 55
0 0 0 0 0 3 36 28 110 528 512 495 468 331 257 229 202 179 570 523 638 535 656 895 891 1026 952 985 1305 1004 770 962 1327 951 994 1006 1422 1366 1191 911 1378 1234 983 1160 601 615 278 1 0
0 0 0 0 0 11 21 1 22 368 372 462 446 406 323 242 225 168 577 504 593 530 852 918 831 821 542 955 1143 1211 1025 1046 1284 1177 948 1063 1331 1546 1198 1086 1345 1248 1110 1115 619 239 10 0 0
0 0 0 0 0 0 15 3 0 87 195 245 278 284 283 234 221 248 285 551 545 481 823 898 902 838 712 875 932 1148 1099 1385 1383 1344 1419 1495 1207 1423 1260 1060 1158 1172 1187 707 473 89 0 0 6
0 0 0 0 0 0 16 23 0 0 15 53 101 150 187 115 112 188 212 386 538 386 744 717 784 1011 874 1050 1136 1242 1172 1318 1382 1248 1223 1267 1205 1369 1242 987 773 1035 1039 793 330 1 0 0 35
0 0 0 0 0 0 7 2 0 2 13 0 26 77 120 84 54 59 138 247 335 374 473 552 656 1308 1117 1144 1188 1154 1290 1253 935 1202 1440 1139 1351 1459 1306 1006 909 1018 1002 569 380 0 0 0 0
0 0 0 0 0 0 1 0 0 47 0 0 0 78 92 76 68 33 76 112 298 319 487 605 575 1392 1387 1288 1173 1140 1018 982 1014 1095 1468 1197 1456 1421 1326 1116 992 893 882 604 35 14 32 8 0
0 0 0 0 0 0 0 0 0 0 9 0 20 64 88 85 46 21 52 70 120 314 527 668 742 1222 1431 1422 1286 1228 1121 1080 981 1126 1133 1215 1315 1328 1389 1337 1045 742 405 180 7 0 0 58 17
0 0 0 0 0 0 0 0 0 0 1 17 39 60 65 66 50 15 20 50 79 243 489 762 839 1134 1299 1506 1433 1278 1212 982 910 855 990 1214 1298 1322 1100 1224 981 642 438 114 20 3 0 0 5
0 0 0 0 0 0 0 0 0 0 0 10 37 74 67 47 28 42 23 53 74 200 572 956 849 967 1208 1242 1445 1360 1203 1169 1236 1310 1002 1105 1196 1160 1016 1072 837 502 330 60 17 3 0 0 0
0 0 0 0 0 0 0 0 0 0 0 0 43 46 110 32 57 69 45 70 99 260 610 961 977 868 1370 1303 1085 1216 1497 1564 1639 1477 1253 1131 1238 958 982 823 496 391 405 116 88 54 36 77 14
0 0 0 0 0 0 0 0 0 0 0 14 52 55 122 92 57 79 28 39 173 187 541 1004 1134 1048 1179 1575 1504 1437 1244 1395 1742 2046 1585 1305 1194 881 694 509 405 398 499 336 129 94 67 42 75
0 0 0 0 0 0 0 0 0 0 0 0 28 123 190 80 48 60 25 98 148 296 595 1278 1334 1211 1416 1544 1629 1639 1645 1375 1336 1886 2231 1606 1288 1277 924 785 552 567 572 423 264 188 177 32 10
0 0 0 0 0 0 0 0 0 0 0 0 0 107 167 101 82 64 70 89 139 342 485 1036 1777 1540 1631 1867 1890 1796 1814 1801 1557 1404 1900 2329 1551 1290 1358 1132 737 662 643 568 401 267 238 154 48

GFSSGP_con_mucape_033.txt.gz
CAPE
389 504 210 26 104 60 44 42 3 2 3 10 12 9 0 0 0 0 0 16 100 188 370 576 1240 1443 1677 1804 2365 2274 2214 1967 2145 2002 1923 1896 1890 1963 1908 1971 1796 1771 1797 1833 1863 1673 1713 1613 1461
376 352 19 0 8 30 61 33 19 11 0 3 15 14 1 6 8 6 4 24 77 216 340 499 1513 1718 1661 1964 2268 2340 2098 2111 2079 2031 2069 2110 2041 1950 1861 1756 1725 1727 1785 1644 1725 1716 1620 1612 1564
538 186 3 19 18 65 76 95 105 27 35 40 3 1 0 8 8 4 0 30 126 263 479 751 1400 2014 1703 1830 2207 2421 2429 2089 2055 2121 2084 1963 1894 1731 1670 1628 1713 1695 1747 1953 1697 1799 1731 1600 1390
398 84 67 210 120 105 88 260 134 77 81 58 5 24 41 10 8 29 8 47 111 313 600 1078 1505 1500 1551 1620 1835 2018 1960 1950 1959 1823 1868 1933 1770 1671 1660 1680 1783 1764 2025 1883 1563 1541 1655 1606 1469
865 555 291 94 81 89 120 236 160 134 105 38 27 35 71 77 66 34 6 54 142 426 787 974 1867 1984 1791 1647 1624 1605 1794 1989 2014 1913 1839 1918 1743 1623 1626 1660 1796 1785 1952 1954 1685 1516 1407 1563 1481
125 455 133 133 129 125 220 324 258 169 104 61 41 35 78 125 104 116 82 89 286 621 1006 1090 1482 1621 1647 1540 1604 1531 1656 1982 2024 1948 1866 1954 1847 1581 1548 1597 1666 1765 1876 1768 1747 1501 1536 1321 1353
7 29 61 76 204 232 249 358 252 171 91 66 47 27 158 187 225 196 169 169 413 1065 1261 1221 1045 1099 1454 1726 1524 1520 1749 1963 2071 2085 1956 1963 1895 1672 1632 1520 1548 1603 1626 1700 1689 1581 1477 1543 1482
139 106 32 65 149 339 444 331 305 164 250 121 58 37 111 225 223 203 281 289 772 1216 1238 1326 1162 1062 1371 1436 1507 1496 1736 1987 2054 2063 2048 1969 1822 1693 1693 1799 1736 1816 1679 1620 1642 1743 1481 1496 1753
706 144 1 8 151 375 498 443 394 335 192 112 175 88 75 186 269 246 341 382 841 1098 1252 1350 1249 1344 1733 1534 1254 1678 1655 1941 2007 1830 1958 2231 1573 1441 1585 1700 1921 1623 1875 1790 1686 1712 1288 1764 2055
582 167 0 33 161 332 521 462 393 326 178 321 282 105 124 247 354 314 341 370 519 848 1108 1286 1366 1444 1553 1401 1287 1262 1184 1537 1715 1428 1404 1631 1317 1080 839 1339 1972 1740 1738 1666 1914 1939 799 938 1281
250 332 17 8 0 345 490 451 423 333 216 335 157 118 178 291 466 429 470 406 404 703 917 1054 1274 1490 1361 1239 1191 1213 1187 1365 1362 1065 926 1051 1168 806 927 1279 1320 1130 1237 1247 1527 1428 741 871 1061
38 29 6 3 41 298 461 450 423 304 233 264 185 144 210 293 433 492 556 518 530 599 755 946 1239 1490 1156 978 1021 1061 1041 1041 841 600 452 690 948 1145 1178 978 1172 939 993 1117 1119 1141 735 912 920
10 0 0 1 31 190 430 478 433 443 434 318 317 227 222 274 420 522 579 616 719 587 684 820 1005 1178 715 652 794 848 724 627 509 329 401 761 1016 1196 1050 1040 998 994 1233 1293 1360 933 959 1047 1166
3 0 0 0 0 216 521 514 442 472 490 566 459 414 325 312 406 495 619 650 723 623 681 749 817 830 648 280 337 572 301 336 369 440 449 649 856 1076 1184 1108 1128 1273 1067 1268 1091 1045 1063 1082 1461
0 0 0 0 8 19 269 310 475 434 479 609 550 475 446 378 428 573 655 717 708 651 688 695 721 781 782 416 382 156 360 383 693 639 670 821 988 1040 1123 1127 1094 1204 1152 1130 1275 959 1026 564 349
0 0 0 0 0 0 0 0 187 347 485 605 631 550 477 421 563 582 644 712 646 653 715 723 724 677 866 698 573 429 530 760 893 870 877 862 1019 1027 1059 924 964 1041 1301 1226 991 800 509 349 66
0 0 0 0 0 0 0 0 294 356 433 622 652 624 536 510 600 617 622 601 563 639 642 678 604 529 807 807 706 756 1308 881 886 959 957 1002 1087 1054 1227 936 837 1079 1328 1212 996 778 436 235 54
0 0 0 0 0 0 0 0 383 404 371 451 593 639 600 600 624 650 630 492 491 565 504 473 542 480 521 760 714 662 1167 725 706 853 972 987 1093 1083 1228 1004 1141 1252 1209 1093 782 599 213 4 0
0 0 0 0 0 0 0 0 375 359 371 337 375 382 536 633 671 659 643 571 485 521 426 484 561 645 612 579 720 984 1110 730 755 1136 980 1001 1006 1230 1253 1036 1025 1119 957 939 783 377 243 0 0
0 0 0 0 0 0 0 0 259 329 404 334 343 292 256 283 392 664 634 588 583 601 402 393 660 707 724 608 728 992 904 699 580 934 1075 861 987 1201 1255 1037 1023 1143 1123 879 832 440 26 0 0
0 0 0 0 0 0 0 0 96 307 390 389 344 295 232 184 202 150 268 470 613 583 324 520 600 669 774 665 730 839 694 803 852 926 1109 1150 1196 1195 1263 1125 943 1154 1100 833 562 215 0 0 0
0 0 0 0 0 0 0 0 0 115 319 367 364 327 293 155 138 113 106 340 403 421 330 426 543 607 682 682 580 560 605 588 837 1123 1156 1187 1175 1235 1201 1114 947 744 888 996 659 235 0 0 0
0 0 0 0 0 0 0 0 0 0 59 204 239 232 227 183 143 116 53 182 311 295 326 413 469 588 616 683 594 625 732 684 741 972 1192 1141 1210 1096 1236 1176 953 785 951 885 601 220 0 0 0
0 0 0 0 0 0 0 0 0 0 0 5 61 105 106 104 119 98 85 95 208 302 275 425 458 625 679 626 712 788 798 793 713 743 811 869 1288 1201 1176 1300 981 810 800 754 612 25 0 1 0
0 0 0 0 0 0 0 0 0 0 0 0 0 4 12 26 49 55 54 59 106 267 297 398 442 631 815 792 810 848 879 852 788 726 720 1040 1155 1164 1255 1308 1101 1004 746 489 208 0 0 5 10
0 0 0 0 0 0 0 0 0 0 0 0 0 0 0 0 24 63 28 26 46 124 236 332 431 565 923 980 919 911 936 918 839 860 664 748 1036 1109 1288 1260 1174 1012 660 479 172 8 0 0 1
0 0 0 0 0 0 0 0 0 0 0 0 0 0 2 11 54 101 67 9 17 31 154 335 476 516 892 1011 1000 948 946 954 933 912 692 610 862 1005 1085 1221 1087 1046 717 512 187 7 0 0 0
0 0 0 0 0 0 0 0 0 0 0 0 0 0 0 15 54 115 76 32 2 29 79 246 490 569 753 1000 1045 1010 980 1001 1006 941 792 859 1126 993 1006 1084 847 984 802 455 170 14 18 9 0
0 0 0 0 0 0 0 0 0 0 0 0 0 0 0 0 44 107 127 65 28 29 38 260 549 600 735 921 971 1062 1118 1118 1076 1072 969 1037 1260 1078 935 1125 882 946 755 368 262 106 38 26 5
0 0 0 0 0 0 0 0 0 0 0 0 0 0 0 0 1 75 117 100 57 38 51 330 589 678 657 990 979 897 928 998 1149 1337 1298 1227 1347 1371 1176 997 793 785 538 390 380 340 223 60 14

GFSSGP_con_mucape_036.txt.gz
CAPE
373 404 182 125 213 43 60 52 30 9 9 23 4 0 2 4 9 19 17 39 69 61 299 516 1474 1697 1674 2278 2312 2056 2099 2037 2325 2346 2286 1967 1920 1871 1887 1734 1781 1799 1786 1884 1643 1753 1530 1561 1549
469 289 17 6 25 46 29 46 17 12 14 22 14 8 6 16 3 0 37 112 143 129 231 378 1714 2029 1713 1886 2292 2304 1796 1774 1877 2010 2095 2001 1945 1975 1737 1653 1611 1836 1606 1688 1700 1666 1615 1499 1327
459 184 3 19 39 72 75 56 72 33 39 22 0 4 0 32 7 2 12 67 199 241 287 600 1508 2171 1543 1559 2003 2264 1820 1836 1981 2112 2098 1963 1841 1739 1632 1628 1614 1627 1888 1682 1801 1806 1669 1455 1449
315 22 78 158 60 103 72 147 82 84 75 41 13 3 19 9 0 0 22 129 239 348 461 1416 1622 1529 1509 1564 1888 2096 1867 1970 1926 1952 1917 1848 1723 1639 1621 1699 1731 1843 2149 1559 1451 1602 1616 1440 1415
683 331 60 88 97 105 111 197 132 91 40 31 24 1 7 59 35 32 49 119 239 442 744 1149 2048 1943 1677 1663 1942 1990 1964 1848 1747 1806 1909 1770 1632 1630 1649 1699 1817 1833 2056 1785 1552 1395 1446 1505 1443
83 343 121 94 118 105 221 175 152 103 61 37 0 0 79 57 25 34 34 106 301 642 864 1116 1656 1740 1631 1583 1713 1763 1834 1839 1892 1770 1886 1858 1659 1549 1549 1619 1730 1801 1887 1831 1577 1494 1453 1294 1422
14 39 38 90 118 129 215 275 191 78 56 46 30 19 106 61 61 35 68 132 354 759 891 941 1036 1293 1620 1571 1539 1533 1752 1845 1956 1856 1889 1921 1748 1552 1562 1546 1581 1612 1625 1745 1641 1469 1481 1474 1508
6 5 38 95 111 158 329 316 200 72 131 59 58 27 47 83 88 113 108 211 608 1005 927 888 911 1035 1173 1265 1497 1534 1732 1821 2019 2035 1957 1870 1808 1639 1682 1836 1692 1968 1694 1631 1628 1394 1446 1501 1681
250 196 67 45 40 217 438 323 293 192 96 91 80 61 50 200 188 165 164 306 764 1033 944 943 896 919 1175 1203 1193 1668 1678 1862 1992 1937 1949 1966 1646 1365 1658 1751 1916 1751 1737 1703 1407 1486 1264 1681 1808
655 285 115 23 31 259 449 371 267 281 89 154 122 161 161 252 224 234 192 193 379 665 944 1023 980 997 1279 1385 1095 1167 1170 1469 1750 1579 1478 1720 1481 1078 1337 1217 2030 1688 1587 1661 1636 1563 933 1089 1297
766 395 155 0 0 282 483 467 358 283 98 133 125 155 192 253 250 242 173 151 198 516 895 1086 1031 1161 1325 1355 1163 1109 1018 1239 1536 1442 1133 1023 1223 896 756 1184 1226 1243 1274 1414 1284 1220 776 810 895
555 118 149 54 0 178 453 478 358 329 99 102 109 162 282 270 270 305 285 245 301 581 681 1009 1088 1265 1320 1278 1154 1077 983 1035 1205 1094 690 500 465 663 869 942 1060 961 1100 1126 996 1106 766 893 1001
292 59 0 16 23 227 367 490 398 370 257 211 119 195 327 355 308 317 331 286 232 505 723 874 1026 1132 1119 1065 960 900 904 856 849 654 335 400 789 930 1068 1086 1017 882 1006 1307 1263 931 906 993 1064
5 9 2 0 16 116 360 409 433 434 358 174 139 189 260 350 393 361 400 415 259 377 499 697 838 1026 1095 896 730 646 679 585 511 397 178 344 681 870 997 985 1049 1031 1046 1219 1151 1125 989 1093 1259
0 0 0 0 0 99 304 413 479 471 341 232 183 184 208 242 359 394 443 514 472 440 383 568 667 856 1012 778 483 321 438 285 248 297 397 554 632 758 883 1044 976 1006 1186 1073 1169 931 815 468 220
0 0 0 0 0 127 353 324 483 483 388 324 212 169 171 203 324 398 468 530 580 545 489 509 651 598 685 627 174 120 87 117 158 429 488 555 738 765 941 984 1049 956 1101 1169 1070 730 464 298 47
0 0 0 0 0 0 292 80 141 453 414 464 342 270 229 213 275 384 453 557 605 622 562 512 522 532 530 478 225 129 215 327 378 513 639 762 839 801 892 909 845 805 1172 1150 1048 746 509 284 20
0 0 0 0 0 0 12 4 0 300 398 417 427 335 332 299 301 392 503 556 596 613 608 485 510 496 486 444 414 369 339 888 1035 750 898 858 889 924 962 1033 899 939 1061 1128 987 529 230 10 0
0 0 0 0 0 0 0 0 134 247 325 363 434 393 352 354 320 413 493 518 556 577 558 522 523 443 371 424 504 520 541 712 892 561 672 743 822 1009 974 1018 877 1004 1035 958 805 448 366 138 0
0 0 0 0 0 0 0 0 171 241 278 364 447 454 426 410 356 437 516 496 497 482 512 523 500 476 414 314 445 508 478 446 958 626 730 810 785 1048 963 1066 970 840 849 817 796 538 251 44 0
0 0 0 0 0 0 0 0 31 264 234 260 306 427 455 439 460 470 477 495 516 490 403 418 449 353 401 343 321 500 608 608 893 768 743 939 775 1096 1178 1127 1001 849 917 913 575 517 270 0 0
0 0 0 0 0 0 0 0 0 127 250 232 195 222 326 338 419 424 420 410 465 514 461 379 408 342 357 423 511 450 567 685 867 848 623 795 852 788 1180 1091 1026 914 937 968 765 479 145 0 0
0 0 0 0 0 0 0 0 0 13 183 231 244 237 217 211 216 201 184 364 367 458 483 454 453 313 322 468 573 599 507 575 634 539 618 798 930 1074 1146 1126 1068 984 670 680 798 626 232 0 0
0 0 0 0 0 0 0 0 0 0 79 165 185 247 250 211 188 130 60 61 211 323 355 376 443 362 348 381 528 619 570 478 432 456 611 777 902 1007 1027 1056 1080 1031 791 739 802 580 338 0 0
0 0 0 0 0 0 0 0 0 0 0 18 84 108 180 262 245 213 105 49 69 164 254 253 287 362 382 403 438 563 611 508 415 535 603 606 828 762 991 1216 1117 1109 860 654 686 616 195 0 0
0 0 0 0 0 0 0 0 0 0 0 0 3 23 35 61 153 176 181 43 21 91 160 177 222 255 346 418 421 451 531 534 469 595 669 581 557 606 985 1086 1003 1192 893 743 642 391 83 0 0
0 0 0 0 0 0 0 0 0 0 0 0 0 0 0 0 1 47 71 101 31 18 124 145 211 223 269 486 498 489 522 548 553 649 723 677 608 686 998 1072 1058 1218 898 770 516 305 47 0 0
0 0 0 0 0 0 0 0 0 0 0 0 0 0 0 0 0 0 0 7 34 27 59 138 157 232 272 547 616 614 609 591 615 686 745 770 754 693 823 916 1109 1200 912 784 594 425 95 1 0
0 0 0 0 0 0 0 0 0 0 0 0 0 0 0 0 0 0 7 20 34 33 17 71 145 224 251 622 738 759 722 675 666 704 729 784 820 718 695 818 935 1104 1008 842 736 586 174 25 4
0 0 0 0 0 0 0 0 0 0 0 0 0 0 0 0 0 0 0 5 29 35 29 32 81 239 303 487 779 834 804 759 738 738 741 803 888 801 699 914 1037 921 1028 840 882 677 303 111 2

GFSSGP_con_mucape_042.txt.gz
CAPE
115 60 179 331 702 578 239 174 56 41 68 93 60 60 177 58 172 90 19 58 0 43 595 840 1598 1873 2128 2387 2904 2562 2189 1977 2035 1978 1998 2098 1893 1844 1813 1752 1873 1756 1758 1646 1610 1618 1459 1402 1455
342 448 383 260 800 147 134 125 126 209 232 176 114 97 161 57 109 76 340 178 21 395 573 946 1742 2220 2141 2323 2630 2498 1940 2074 1990 2102 2059 2014 1853 1836 1739 1955 1691 1848 1768 1569 1681 1606 1490 1191 1133
569 310 253 585 325 255 248 161 305 254 183 169 176 211 267 78 182 65 60 177 440 514 648 1264 1547 2156 2113 2106 2295 2507 2343 2103 2074 2010 1996 2018 1806 1706 1766 1709 1893 1571 1735 1973 1747 1664 1483 1395 1321
409 423 261 1133 284 301 261 321 328 347 257 182 216 293 128 135 178 142 268 393 481 617 846 1094 1806 1793 2122 1923 1888 1829 1964 2073 2196 1981 1859 1767 1719 1799 1846 2062 1900 1867 1565 1589 1694 1631 1521 1490 1291
694 802 743 548 200 351 401 425 376 354 304 238 185 125 88 111 229 212 293 338 530 571 866 1087 2175 2296 2082 1928 1874 1895 2069 2219 2048 1880 1738 1688 1679 1804 1869 2124 1717 2039 1750 1554 1497 1558 1523 1447 1205
1088 383 549 188 73 183 573 496 362 315 305 268 264 189 282 296 321 291 370 332 424 470 653 981 1857 1921 2142 1977 1935 1925 1976 1982 1986 1924 1783 1714 1720 1736 1745 1756 1874 1987 1815 1527 1422 1371 1324 1476 1599
892 468 232 106 107 107 568 507 451 340 384 275 312 551 442 319 350 386 332 366 458 410 493 699 1049 1581 1870 2214 1992 1923 1832 1832 1904 1957 1903 1795 1648 1636 1634 1558 1714 1693 1680 1581 1403 1337 1367 1468 1622
525 330 284 194 162 221 650 595 575 233 357 242 287 390 543 366 382 466 507 398 534 468 443 661 931 1105 1334 1745 1849 1879 1907 1942 1879 1865 1884 1772 1688 1673 1857 1846 1641 1833 1510 1478 1410 1377 1483 1664 1743
395 462 339 228 232 528 746 729 495 224 317 256 242 325 529 454 444 499 471 392 523 495 420 436 661 943 1056 988 1237 1654 1835 1869 2007 1953 1820 1622 1923 1959 1858 1346 1910 1574 1439 1313 1406 1157 1535 1786 1940
436 571 293 158 147 427 829 765 584 327 326 314 356 313 479 417 534 641 679 670 758 529 419 374 466 697 981 696 1299 1249 855 874 1190 1633 1765 1844 2117 2212 1869 1687 1675 1682 1457 1495 1389 1389 1096 1472 1474
244 393 280 131 92 358 792 861 692 374 281 371 535 512 524 481 604 655 686 768 830 599 427 336 443 754 839 672 1043 1107 829 1013 1522 2012 2049 1940 1933 2132 1929 1879 1830 2003 1587 1533 1568 1707 1386 1303 1266
234 128 423 205 36 107 660 880 869 490 231 216 580 506 554 571 624 623 628 670 753 802 617 488 641 890 884 695 796 807 413 722 835 1152 1781 1697 1761 1941 2131 1816 1772 2055 1402 1479 1468 1411 1460 1466 1335
223 32 109 191 46 22 287 737 702 736 313 259 634 580 620 646 684 656 648 612 688 748 704 731 925 1218 1204 1148 709 566 459 353 434 866 1130 1187 1454 1946 2128 2170 2020 1883 1823 1405 1432 1602 1297 903 789
5 6 1 0 21 0 143 454 738 805 654 526 648 681 682 689 749 771 678 635 655 626 598 651 809 1069 1201 1290 1284 1121 849 389 564 495 651 1247 1464 1855 1331 1763 1728 1776 1930 2048 1307 1364 1152 912 1036
0 0 0 0 5 0 106 346 722 885 886 861 749 759 689 695 742 775 716 626 624 613 666 792 996 1002 1394 1423 1538 1478 651 480 350 286 733 1056 1374 1838 2333 1908 1732 1532 1498 1646 1424 1165 1018 1483 954
0 0 0 0 2 8 39 208 664 966 1099 1048 879 757 626 676 625 617 489 484 523 569 801 945 865 974 1408 1506 1588 1209 578 364 202 153 611 1077 1382 2004 2452 1938 1818 2149 1495 1381 1658 1611 1415 861 85
0 0 0 0 2 0 61 110 241 934 1058 1144 1077 786 624 602 573 542 552 598 627 729 895 1102 1088 831 1184 1490 1417 1142 733 635 165 334 791 1217 1596 2141 2614 1897 1804 2443 2110 1235 1378 1395 1358 891 321
0 0 0 0 0 15 127 103 73 559 798 1059 1121 894 789 611 554 519 583 611 707 768 862 1086 1110 1182 1428 1349 1513 961 601 413 169 398 732 1019 1708 2324 2696 2164 2140 2601 1837 1315 1422 1480 759 307 211
0 0 0 0 0 3 29 72 93 107 580 665 1056 1033 954 795 580 537 607 538 604 804 974 1184 1231 1964 1414 1255 1082 770 452 336 218 512 1079 1988 2608 2621 2761 2646 2625 2340 1999 1670 1680 1524 1268 326 118
0 0 0 0 0 0 0 0 6 7 203 490 846 1053 1038 885 670 621 666 610 659 908 1191 1544 1544 2065 1971 1416 1360 722 436 241 346 928 1831 2501 2545 2834 2575 2577 2104 2246 1815 2054 1875 1694 571 382 105
0 0 0 0 0 4 6 0 0 0 8 125 459 880 967 968 792 699 607 683 640 876 1322 1709 2155 2106 2192 2289 1324 1128 654 715 706 1327 1969 2372 2394 2490 2771 2583 2466 2187 2250 1598 2088 2031 1269 285 0
0 0 0 0 0 0 0 9 26 13 33 171 273 726 960 1002 942 743 608 604 711 999 1368 1775 2173 2406 2304 2155 1807 2434 973 644 831 1507 1472 1779 2277 2255 2261 2766 2538 2594 2021 1872 2083 1788 1394 1248 0
0 0 0 0 0 0 0 0 0 0 1 133 367 489 913 1009 1053 906 743 602 642 889 1242 1633 2190 2806 2894 2624 2608 1869 1936 572 1085 1235 2626 3133 2879 2426 2107 2357 2554 2707 2631 2401 2463 2048 1940 1019 60
0 0 0 0 0 0 0 0 0 0 0 15 196 383 781 893 1003 1113 1031 613 757 831 1152 1557 2476 3520 3243 2657 2333 3381 2854 1806 1452 2131 1793 1759 1745 1762 2466 2219 2384 2635 2755 2673 2737 2434 2058 1565 503
0 0 0 0 0 0 0 0 0 0 0 0 17 257 593 977 969 1082 1192 1092 760 875 1189 1616 3110 3651 3271 2650 2740 2816 3209 3009 3297 2967 2065 2474 1381 1433 2520 2539 2445 2767 3115 2675 2837 2683 1976 1887 1172
0 0 0 0 0 0 0 0 0 0 0 0 0 2 440 747 963 1007 1231 1333 1249 1044 1687 2143 3079 3358 2759 2747 3517 3672 3795 2061 2059 2794 2047 1784 1417 1278 1677 2095 2495 2848 2758 2943 2975 2515 2055 1747 1686
0 0 0 0 0 0 0 0 0 0 0 0 0 0 0 435 820 959 1085 1260 1467 1597 2189 2624 3207 3596 3564 2892 3814 3824 3603 3405 2315 3209 3621 2197 2868 1468 1715 1951 2595 2619 2681 3004 2943 2420 2049 1650 1865
0 0 0 0 0 0 0 0 0 0 0 0 0 0 0 81 646 883 899 1083 1270 1506 1845 2475 3242 3586 3469 2673 3112 2958 3422 3564 3555 3642 3678 3456 3225 2735 1916 2238 2312 2577 2730 3110 3023 2432 2028 1972 1574
0 0 0 0 0 0 0 0 0 0 0 0 0 0 0 92 459 877 1015 1000 1155 1307 1379 1976 2583 3105 3012 3124 3324 3466 3429 3056 3299 2981 3608 3755 3582 3663 3019 2822 2457 2386 2894 3051 3044 2841 2014 2078 1831
0 0 0 0 0 0 0 0 0 0 0 0 0 0 0 1 119 368 477 790 1005 1259 1339 1495 1830 2109 2401 2869 3427 3474 3571 3485 3125 3510 3509 3408 3792 3813 3799 3567 3121 2656 2651 3005 3033 2823 2066 2078 1869

GFSSGP_con_mucape_045.txt.gz
CAPE
32 35 188 179 667 1094 273 132 186 134 148 94 7 299 146 145 318 149 3 18 4 153 490 739 1542 1953 2611 2916 2860 2679 2191 2005 2009 1922 2226 1899 1908 1968 1889 1943 1828 1808 1699 1753 1725 1547 1459 1354 1332
141 186 389 692 450 263 47 113 43 123 232 100 205 260 199 379 41 17 72 2 2 258 478 856 1682 2110 2334 2602 2543 2496 1960 1942 1984 2265 1968 1873 1940 1898 1715 1646 1808 1785 1597 1748 1689 1632 1374 1152 1255
359 422 375 764 711 60 44 84 237 275 266 151 348 187 425 530 20 42 57 0 36 394 700 1367 1824 2093 2303 2137 2287 2313 1968 1973 2078 2068 2210 1883 1740 1756 1725 1737 1503 1774 1991 1827 1746 1587 1469 1296 1263
478 514 546 353 197 159 104 155 240 319 230 253 289 302 409 424 201 147 3 0 273 405 907 1409 1917 2100 1915 1902 2109 2045 1996 2030 2040 2022 1800 1786 1884 1831 1832 1942 1888 1562 1593 1638 1630 1577 1467 1301 1159
758 1118 1136 1036 218 101 103 171 348 278 343 334 403 477 502 244 281 282 36 505 474 596 963 1609 2093 2379 2058 1863 1848 1933 2038 2161 1893 1795 1704 1689 1768 1819 2021 1739 2035 1773 1569 1519 1498 1475 1434 1277 1143
1365 1055 567 265 40 54 114 190 223 322 522 407 544 474 518 274 261 264 303 461 571 709 746 1383 1860 2241 2189 1798 1792 2006 2164 1947 1852 1754 1715 1715 1729 1746 1760 1865 2047 1796 1582 1389 1361 1340 1455 1620 1581
1522 987 424 64 24 69 115 213 224 259 474 537 445 591 651 449 246 442 428 566 581 503 929 1085 1172 1776 1903 1888 1878 1844 1817 1939 1890 1810 1761 1689 1662 1661 1574 1636 1713 1680 1605 1425 1305 1336 1414 1650 1569
889 667 320 111 2 48 84 194 57 289 524 518 912 872 740 626 355 322 436 339 324 626 821 570 819 1091 1478 1669 1839 1725 1748 1803 1828 1806 1756 1722 1683 1763 1827 1679 1710 1554 1440 1433 1399 1471 1611 1755 1686
415 258 196 85 121 114 100 36 72 232 424 482 431 897 870 674 445 355 361 332 352 515 593 353 615 881 1022 1177 1539 1767 1816 1823 1778 1700 1712 1677 2054 2404 2012 2003 1783 1395 1342 1344 1530 1374 1840 1815 1948
323 161 163 220 184 111 315 123 1 135 345 371 623 1020 732 733 561 389 437 522 429 524 411 252 355 544 791 489 1175 1056 847 790 1495 1819 1676 1478 1890 1817 2131 1798 1842 1575 1459 1459 1461 1463 1550 1954 1834
219 125 92 70 112 232 254 528 229 8 315 277 688 991 693 827 650 535 680 585 743 483 271 166 346 595 598 1113 847 922 608 819 1253 1896 2027 1701 2134 2173 1769 2082 2063 2014 2032 1797 1888 1657 1576 1549 1237
112 92 167 118 79 127 246 581 500 245 39 324 528 869 756 874 941 975 642 995 902 458 284 239 486 1404 809 836 692 577 418 769 949 1474 1946 2001 1822 1582 1736 1752 2205 2889 2804 2232 2016 2169 1441 940 1854
70 61 90 336 187 75 300 485 635 385 94 203 534 802 832 846 916 942 944 938 775 531 346 354 497 1298 1066 1006 751 541 360 415 521 1168 1759 1595 1520 1915 1921 2037 1940 2414 2103 2279 1949 2081 1296 1694 796
24 43 73 216 157 50 154 444 485 665 332 357 585 770 831 857 941 997 942 797 780 586 490 474 669 1100 1184 1570 1382 757 531 317 423 602 1015 1506 1562 1416 1380 1940 2106 2384 2077 1976 1546 2082 2133 2186 1225
36 8 17 116 117 96 49 199 415 668 724 645 754 698 776 825 918 939 901 811 748 657 628 652 814 1055 1370 1327 1428 1264 684 474 407 466 879 1372 1608 1942 2117 1801 2189 2029 2093 1845 1539 1461 1314 1082 1173
1 6 51 17 0 44 26 132 219 819 951 877 862 691 681 751 825 879 865 765 756 643 687 702 627 821 1270 1756 1577 1216 614 298 303 215 682 1285 1554 1998 2655 2420 1656 2915 1668 1618 2417 1211 1537 760 312
0 0 1 31 11 47 0 83 24 746 945 1040 1010 928 613 699 759 800 857 781 722 718 741 780 796 624 1158 1923 1589 1510 1870 564 228 139 459 1888 1745 1987 2596 2846 2161 1992 2080 1219 2441 1613 1546 1364 450
0 0 2 3 56 50 34 60 273 678 778 941 1124 1068 838 563 630 679 696 640 606 702 814 1367 962 2073 2666 1768 2232 1145 651 540 307 136 546 1575 1790 2114 2700 2183 2343 2200 1593 1515 2326 1764 1629 273 20
0 0 0 28 42 31 101 76 135 437 596 487 973 1130 981 661 505 522 508 405 470 653 904 1503 1953 2803 1943 1270 1163 927 507 590 251 222 991 1262 1729 2199 2575 2356 2412 1927 2124 1996 1621 1765 990 402 1
0 0 0 0 25 47 90 145 171 142 419 517 651 1065 1005 913 606 434 487 450 461 694 1512 2267 2582 3396 2788 1615 1806 940 1005 204 158 164 1745 1580 2031 2725 2335 2505 1891 3094 2095 2077 1730 1437 911 166 1
0 0 0 0 1 60 25 89 74 88 136 402 321 1000 945 1086 931 531 482 476 417 703 1668 2107 2941 3238 2901 2479 1969 1900 1265 1013 277 396 789 1870 2256 2529 2512 2883 2427 2049 2339 2758 2232 1751 833 1329 0
0 0 0 0 7 33 0 65 54 38 73 76 182 646 973 1038 1130 832 503 479 446 663 998 2305 3216 3414 3257 3387 1941 2172 900 437 201 593 687 1762 2597 2479 2414 2624 1983 1919 1975 3503 2349 1500 1505 1245 58
0 0 0 0 0 8 6 34 67 44 31 54 117 145 692 890 1062 966 682 434 433 378 620 1576 3321 3636 3355 3369 2950 1949 1910 579 431 525 2232 2673 3707 3194 2106 2928 2896 2070 2048 3029 2011 2169 2135 1320 604
0 0 0 0 0 0 0 9 35 35 62 86 148 150 242 829 940 990 921 497 379 306 446 1163 3422 4112 3996 3974 3588 3755 2701 1988 564 1269 1389 1414 1448 2253 3395 2542 3512 3387 3187 2863 2669 2712 2322 2332 764
0 0 0 0 0 0 0 0 0 7 23 38 52 175 213 643 947 1044 976 743 712 621 974 1360 3350 4243 4300 4152 3709 3356 3806 3423 3184 3199 1652 2156 1199 1140 2875 3736 3891 2765 3765 3453 3705 3793 3054 2349 1745
0 0 0 0 0 0 0 0 0 0 1 17 39 64 217 457 884 1061 1105 1022 864 1118 1550 1990 3266 4132 4308 4152 4199 4141 4063 2376 2083 2389 1857 1497 1345 1196 3346 4116 3346 3397 3116 3486 4130 2913 2521 2983 2063
0 0 0 0 0 0 0 0 0 0 0 0 0 0 144 304 690 979 1186 1092 1009 1334 1969 2286 3245 4117 4341 4144 4372 4397 4221 3848 2572 2670 3418 2157 2931 1389 2580 2677 3164 3504 3624 4005 4193 2485 3439 3030 2737
0 0 0 0 0 0 0 0 0 0 0 0 0 0 0 223 591 898 1099 1279 1449 1215 1789 2485 2986 4082 4138 4134 4244 4274 4362 4332 3903 3704 3900 3269 3218 3872 2865 3266 2920 3372 3829 4019 4319 3054 3453 3390 2308
0 0 0 0 0 0 0 0 0 0 0 0 0 0 0 20 369 658 941 1174 1553 1395 1389 2072 2934 3503 4226 4177 4144 4285 4294 4274 4385 3970 4011 3960 4336 4555 3841 4104 3590 3699 3784 4041 4356 4015 3561 3395 3169
0 0 0 0 0 0 0 0 0 0 0 0 0 0 0 3 127 412 744 1057 1227 1664 1520 1809 2279 2607 3774 3952 4069 4226 4316 4307 4225 4256 4062 4244 4293 4456 4598 4093 4203 3947 3796 4071 4409 3830 2591 3463 3170

GFSSGP_con_mucape_048.txt.gz
CAPE
19 0 76 119 633 478 152 82 79 105 60 12 43 105 343 325 146 30 0 0 0 213 374 1132 2010 2362 2476 2542 2527 2694 2447 2517 2222 2403 2428 2192 2121 2194 2163 1935 1851 1807 1835 1847 1597 1500 1300 1318 1282
23 37 252 496 1196 283 112 160 218 168 120 184 178 254 438 255 1 0 5 0 19 118 427 1021 2074 2545 2523 2741 2764 2530 2077 1796 2146 2529 2268 2128 2074 2072 1836 1939 1791 1702 1864 1738 1643 1484 1243 1267 1242
239 176 744 693 352 61 95 237 177 181 153 216 336 385 577 225 2 0 0 0 71 260 733 1509 1895 2397 2509 2618 2599 2471 2316 2051 2225 1982 2092 1783 1643 1842 1802 1453 1856 2009 1836 1794 1571 1506 1367 1283 1291
587 563 609 204 177 212 203 173 212 244 193 328 311 508 288 43 7 0 0 0 194 580 877 1627 1896 2050 2500 2483 2490 2446 2349 1956 2184 2240 1747 1860 1834 1889 1961 1860 1516 1538 1595 1590 1577 1471 1346 1158 1139
577 926 657 414 393 289 249 360 264 286 320 392 472 434 246 158 128 11 0 33 329 752 875 1363 2101 2359 2462 2439 2510 2375 2194 1992 1926 1830 1670 1688 1902 2064 1815 2005 1661 1547 1549 1523 1501 1473 1367 1201 1093
907 688 25 119 71 168 189 346 376 270 575 589 520 454 343 173 0 0 35 148 368 529 552 1049 1859 2309 2346 2045 2182 2138 2063 1688 1652 1677 1697 1739 1744 1814 1922 2040 1783 1605 1426 1433 1428 1460 1593 1598 1509
833 538 379 345 259 88 144 150 84 523 356 704 488 392 296 172 1 0 279 216 353 397 1190 1518 1492 1679 1984 2253 2174 2185 1736 1677 1708 1671 1625 1581 1598 1617 1628 1716 1686 1606 1440 1368 1375 1397 1493 1596 1520
582 319 56 100 3 49 96 42 20 389 583 594 685 496 421 227 43 96 241 474 428 576 1158 1662 1445 1348 1580 1537 1795 1626 1613 1702 1756 1756 1672 1537 1494 1430 1504 2145 1908 1475 1463 1437 1411 1519 1604 1662 1507
214 360 133 39 16 28 55 90 213 234 638 847 938 608 541 390 328 323 416 484 821 604 769 450 791 1577 1545 1536 1409 1601 1556 1625 1687 1656 1403 1422 1353 2055 2021 2219 2158 1433 1434 1460 1542 1576 1522 1726 1906
224 160 59 12 61 78 46 5 58 110 240 716 890 755 398 421 437 448 467 547 334 852 363 267 429 702 1333 559 1709 1754 1265 1246 1603 1798 371 593 1405 1498 1476 1768 2378 2151 1954 1672 1831 1286 1479 1837 2208
67 133 7 43 42 58 132 83 137 81 71 1039 1043 779 495 468 485 415 341 473 380 845 369 164 612 1001 877 1085 1207 1322 1144 1223 2051 2267 1271 579 1623 2455 1279 1577 1700 1795 2045 1747 1569 1715 1716 1589 1942
38 143 84 16 62 55 184 148 42 52 61 675 855 814 656 641 496 486 462 446 618 899 475 279 1098 1310 1620 1459 765 1229 809 1306 1642 2058 2649 2676 854 2100 425 947 932 1676 1515 2090 1744 2059 2226 650 1504
33 89 121 112 118 168 90 12 105 16 124 532 787 759 691 693 528 558 639 512 954 987 528 605 1326 1750 2738 2100 1274 1077 1423 1203 1153 2352 2382 2598 997 2317 943 1000 915 2027 2464 1829 2200 1604 2195 1047 1366
30 64 100 149 165 160 240 315 70 22 39 420 676 638 820 662 808 955 910 854 1039 607 522 876 1428 1886 2287 2485 3204 2190 2193 1166 1752 1802 2234 2021 2719 2006 1865 1904 870 1867 2057 2621 2241 2718 2501 1353 883
2 25 52 57 83 146 9 245 303 111 149 210 510 620 533 914 1041 1069 916 1227 1250 713 568 886 1065 1413 2230 2402 2328 2380 2087 958 1158 1776 2553 1857 2566 2855 3059 1140 2253 1435 1795 3264 2035 2334 2089 1050 1257
12 24 39 61 56 95 29 34 321 91 136 305 362 501 559 545 683 1304 1212 1199 966 446 797 1199 444 1257 1743 2110 2330 2093 1602 1263 1800 1332 1841 2241 2394 2640 3448 2192 913 2407 3089 2148 2158 2757 2039 1423 1707
0 5 17 35 50 15 21 15 59 89 103 578 418 294 532 673 648 798 768 928 891 831 1276 1095 1146 1268 1676 2371 2220 1926 2086 2385 1706 1493 1875 2516 2649 2668 2853 2132 2028 2448 2427 1621 1896 1263 2399 1229 1643
0 2 7 17 56 2 16 0 43 72 35 478 627 478 481 522 564 714 638 689 770 1081 1505 1221 1333 2109 1981 1956 2291 1863 1780 1702 1543 1774 1483 2785 3039 3047 3824 1864 1671 2263 1007 2482 2247 2523 2153 1535 511
0 7 0 0 13 24 2 69 60 40 44 276 480 839 382 465 536 750 658 701 873 998 1432 1386 1983 2597 1963 1938 1818 1846 1273 1623 1606 1736 1918 3177 3095 3067 3757 2740 1418 3157 2392 2387 2802 2778 2058 1669 61
0 0 0 0 10 26 24 64 269 75 62 71 565 363 843 471 499 770 749 736 770 1065 1386 1868 1986 2531 2355 1929 1791 1578 1844 1236 1074 1415 2172 2619 2669 3293 3081 2519 3216 2426 1161 2875 2575 2938 1669 1664 725
0 0 0 0 0 46 31 19 142 323 293 3 7 826 833 817 562 708 767 712 655 1075 1456 1864 2032 2906 2438 2063 2146 2603 2055 2366 1294 1023 1460 2013 2527 3382 3118 3273 2919 2673 2249 2676 2500 2661 2286 811 270
0 0 0 2 14 15 58 48 123 73 130 232 382 773 659 893 818 567 622 639 577 974 1375 1961 2223 2466 2640 2564 1933 2094 1066 890 769 1119 1149 1817 2431 3048 3379 3253 2889 3342 2860 2744 2945 2879 2852 1981 783
0 0 0 0 3 8 11 73 54 151 85 60 317 269 737 711 902 690 567 573 627 849 1421 1786 2369 2390 2749 2154 2539 1710 1624 900 1138 887 1891 2006 3118 3314 3449 3595 3631 3290 2966 2935 2458 3190 2493 3104 1843
0 0 0 0 0 2 0 21 8 54 136 51 84 71 782 742 990 1047 727 673 616 762 1180 1584 2336 2462 2692 2781 2172 3160 1720 1848 867 1181 1545 2361 2851 3049 3484 3634 3618 3245 3049 3035 3188 3916 3342 3118 3068
0 0 0 0 0 0 0 0 26 86 135 38 83 55 184 945 1042 1224 1063 801 710 773 888 1328 2525 2820 2803 3056 2742 2187 3396 1996 2331 3480 1186 1920 1855 2358 2618 3190 3919 3205 3384 3660 3291 4202 3670 3165 2976
0 0 0 0 0 0 0 0 0 2 32 99 96 66 134 416 1078 1258 1298 1039 825 771 894 1234 2421 2858 3165 2771 3079 2723 2709 3204 1721 2042 2192 1479 1894 1910 2871 2699 2908 3163 3032 3039 4001 3932 3313 3210 2973
0 0 0 0 0 0 0 0 0 0 0 17 34 137 256 250 1048 1237 1394 1224 898 836 951 1077 2181 2990 3340 3159 3299 3367 2649 2758 2793 1851 2510 3062 2185 2206 4196 2951 2912 3263 3637 3409 3520 3035 3556 3468 3012
0 0 0 0 0 0 0 0 0 0 0 0 0 17 98 399 663 1101 1313 1374 1128 841 955 1247 2069 3049 3509 3612 3420 3478 3418 2611 2459 2909 2020 2208 3003 3340 4117 3393 3344 3376 3167 3631 3418 3460 3384 3177 3139
0 0 0 0 0 0 0 0 13 0 0 0 0 0 0 318 557 930 1221 1427 1412 1042 986 1320 1703 3026 3519 3617 3708 3560 3574 3394 2902 2284 2755 2440 2842 3071 4311 3957 3258 3108 3204 3200 3698 3177 3056 3347 2772
0 0 0 0 0 0 0 2 0 0 0 0 0 0 0 79 640 826 1190 1501 1622 1463 1211 1336 1611 2121 3323 3746 3781 3770 3850 3903 3651 2996 2726 2970 3340 3526 3526 3943 3566 3279 2995 3322 3427 3387 2600 3231 2862